ROU1665 KRSW-CYYZ

Flight info

Callsign ROU1665
Flight time 2h 28m
Altitude 37000
Route CSHEL8 VIYAP Q69 RICCS DCT OXMAN LINNG3
Aircraft A319/M-SDE3FGHIRWY/LB1

Departure

Time 2026-05-04 00:41
Airport Southwest Florida International Airport (KRSW)

Arrival

Time 2026-05-04 03:10
Airport Toronto Pearson International Airport (CYYZ)
Time Latitude Longitude Altitude Speed Heading
2026-05-04 00:06 26.52909 -81.75456 42 ft 0 kts 278°
2026-05-04 00:31 26.52907 -81.75440 44 ft 3 kts 278°
2026-05-04 00:31 26.52904 -81.75415 43 ft 3 kts 284°
2026-05-04 00:32 26.52896 -81.75392 44 ft 3 kts 314°
2026-05-04 00:32 26.52883 -81.75384 44 ft 1 kts 11°
2026-05-04 00:32 26.52878 -81.75385 44 ft 0 kts 11°
2026-05-04 00:34 26.52889 -81.75383 44 ft 3 kts 11°
2026-05-04 00:34 26.52941 -81.75373 44 ft 11 kts
2026-05-04 00:35 26.53016 -81.75360 43 ft 11 kts
2026-05-04 00:35 26.53088 -81.75377 44 ft 11 kts 303°
2026-05-04 00:35 26.53100 -81.75465 44 ft 12 kts 277°
2026-05-04 00:35 26.53112 -81.75554 44 ft 12 kts 279°
2026-05-04 00:36 26.53125 -81.75646 44 ft 12 kts 279°
2026-05-04 00:36 26.53139 -81.75740 44 ft 13 kts 279°
2026-05-04 00:36 26.53175 -81.75827 44 ft 13 kts 323°
2026-05-04 00:36 26.53224 -81.75900 45 ft 12 kts 263°
2026-05-04 00:37 26.53179 -81.75987 44 ft 13 kts 237°
2026-05-04 00:37 26.53117 -81.76067 44 ft 14 kts 227°
2026-05-04 00:37 26.53057 -81.76154 41 ft 14 kts 239°
2026-05-04 00:37 26.53002 -81.76250 43 ft 15 kts 234°
2026-05-04 00:38 26.52940 -81.76344 41 ft 15 kts 234°
2026-05-04 00:38 26.52878 -81.76440 42 ft 15 kts 234°
2026-05-04 00:38 26.52816 -81.76536 43 ft 15 kts 234°
2026-05-04 00:38 26.52753 -81.76633 42 ft 15 kts 234°
2026-05-04 00:39 26.52691 -81.76727 44 ft 15 kts 233°
2026-05-04 00:39 26.52629 -81.76821 43 ft 15 kts 234°
2026-05-04 00:39 26.52589 -81.76924 44 ft 15 kts 283°
2026-05-04 00:39 26.52654 -81.76978 45 ft 7 kts 347°
2026-05-04 00:40 26.52677 -81.76959 44 ft 0 kts 55°
2026-05-04 00:40 26.52681 -81.76954 45 ft 1 kts 55°
2026-05-04 00:40 26.52717 -81.76896 45 ft 33 kts 54°
2026-05-04 00:40 26.53004 -81.76458 43 ft 103 kts 54°
2026-05-04 00:41 26.53539 -81.75635 82 ft 152 kts 54°
2026-05-04 00:41 26.54270 -81.74791 624 ft 154 kts 31°
2026-05-04 00:41 26.55328 -81.74505 1087 ft 166 kts
2026-05-04 00:41 26.56550 -81.74477 1542 ft 180 kts
2026-05-04 00:42 26.57821 -81.74481 1977 ft 194 kts
2026-05-04 00:42 26.59261 -81.74482 2320 ft 219 kts
2026-05-04 00:42 26.60868 -81.74483 2735 ft 243 kts
2026-05-04 00:42 26.62612 -81.74484 3413 ft 255 kts
2026-05-04 00:43 26.64406 -81.74489 4295 ft 261 kts
2026-05-04 00:43 26.66243 -81.74495 5102 ft 268 kts
2026-05-04 00:43 26.68123 -81.74496 5928 ft 272 kts 360°
2026-05-04 00:43 26.70025 -81.74494 6836 ft 273 kts 359°
2026-05-04 00:44 26.71943 -81.74492 7663 ft 278 kts 358°
2026-05-04 00:44 26.73893 -81.74487 8404 ft 284 kts 357°
2026-05-04 00:44 26.75893 -81.74486 9071 ft 291 kts 357°
2026-05-04 00:44 26.77947 -81.74491 9733 ft 298 kts 357°
2026-05-04 00:45 26.80048 -81.74494 10306 ft 310 kts 356°
2026-05-04 00:45 26.82287 -81.74496 10537 ft 333 kts 356°
2026-05-04 00:45 26.84641 -81.74494 11064 ft 343 kts 356°
2026-05-04 00:45 26.87044 -81.74488 11732 ft 348 kts 356°
2026-05-04 00:46 26.89477 -81.74484 12443 ft 351 kts 355°
2026-05-04 00:46 26.91935 -81.74486 13130 ft 355 kts 355°
2026-05-04 00:46 26.94420 -81.74488 13797 ft 359 kts 355°
2026-05-04 00:46 26.96931 -81.74488 14448 ft 363 kts 355°
2026-05-04 00:47 26.99448 -81.74483 15064 ft 368 kts 355°
2026-05-04 00:47 27.02016 -81.74586 15668 ft 368 kts 347°
2026-05-04 00:47 27.04503 -81.75199 16260 ft 365 kts 336°
2026-05-04 00:47 27.06940 -81.76045 16859 ft 369 kts 336°
2026-05-04 00:48 27.09403 -81.76899 17452 ft 372 kts 336°
2026-05-04 00:48 27.11890 -81.77760 18013 ft 376 kts 336°
2026-05-04 00:48 27.14410 -81.78631 18584 ft 380 kts 336°
2026-05-04 00:48 27.16947 -81.79511 19141 ft 383 kts 335°
2026-05-04 00:49 27.19507 -81.80401 19701 ft 387 kts 335°
2026-05-04 00:49 27.22089 -81.81295 20268 ft 390 kts 335°
2026-05-04 00:49 27.24656 -81.82181 20802 ft 392 kts 335°
2026-05-04 00:49 27.27274 -81.83083 21344 ft 395 kts 335°
2026-05-04 00:50 27.29912 -81.83992 21848 ft 398 kts 335°
2026-05-04 00:50 27.32570 -81.84909 22345 ft 401 kts 335°
2026-05-04 00:50 27.35247 -81.85839 22857 ft 404 kts 335°
2026-05-04 00:50 27.37936 -81.86781 23346 ft 406 kts 334°
2026-05-04 00:51 27.40643 -81.87729 23817 ft 408 kts 334°
2026-05-04 00:51 27.43368 -81.88679 24261 ft 411 kts 334°
2026-05-04 00:51 27.46108 -81.89632 24694 ft 413 kts 334°
2026-05-04 00:51 27.48870 -81.90592 25106 ft 416 kts 334°
2026-05-04 00:52 27.51648 -81.91557 25497 ft 419 kts 334°
2026-05-04 00:52 27.54442 -81.92527 25892 ft 421 kts 334°
2026-05-04 00:52 27.57254 -81.93504 26288 ft 424 kts 334°
2026-05-04 00:52 27.60080 -81.94486 26667 ft 426 kts 334°
2026-05-04 00:53 27.62921 -81.95475 27052 ft 428 kts 334°
2026-05-04 00:53 27.65774 -81.96471 27423 ft 430 kts 334°
2026-05-04 00:53 27.68647 -81.97474 27789 ft 432 kts 334°
2026-05-04 00:53 27.71529 -81.98479 28146 ft 434 kts 334°
2026-05-04 00:54 27.74392 -81.99479 28492 ft 437 kts 334°
2026-05-04 00:54 27.77304 -82.00498 28816 ft 439 kts 333°
2026-05-04 00:54 27.80233 -82.01516 29142 ft 442 kts 334°
2026-05-04 00:54 27.83185 -82.02520 29467 ft 444 kts 334°
2026-05-04 00:55 27.86165 -82.03517 29787 ft 447 kts 334°
2026-05-04 00:55 27.89159 -82.04510 30111 ft 449 kts 334°
2026-05-04 00:55 27.92156 -82.05505 30417 ft 451 kts 334°
2026-05-04 00:55 27.95174 -82.06513 30685 ft 453 kts 334°
2026-05-04 00:56 27.98202 -82.07531 30947 ft 455 kts 333°
2026-05-04 00:56 28.01242 -82.08560 31197 ft 457 kts 333°
2026-05-04 00:56 28.04300 -82.09599 31439 ft 460 kts 333°
2026-05-04 00:56 28.07385 -82.10609 31734 ft 465 kts 336°
2026-05-04 00:57 28.10586 -82.11196 32063 ft 478 kts 345°
2026-05-04 00:57 28.13945 -82.11519 32396 ft 479 kts 345°
2026-05-04 00:57 28.17270 -82.11830 32721 ft 479 kts 345°
2026-05-04 00:57 28.20595 -82.12141 33025 ft 480 kts 344°
2026-05-04 00:58 28.23931 -82.12455 33346 ft 480 kts 344°
2026-05-04 00:58 28.27256 -82.12772 33662 ft 480 kts 343°
2026-05-04 00:58 28.30551 -82.13091 33950 ft 481 kts 343°
2026-05-04 00:58 28.33882 -82.13412 34244 ft 481 kts 343°
2026-05-04 00:59 28.37224 -82.13734 34547 ft 481 kts 343°
2026-05-04 00:59 28.40569 -82.14057 34848 ft 481 kts 343°
2026-05-04 00:59 28.43897 -82.14377 35183 ft 480 kts 344°
2026-05-04 00:59 28.47288 -82.14368 35476 ft 495 kts 354°
2026-05-04 01:00 28.50731 -82.13698 35781 ft 510 kts
2026-05-04 01:00 28.54142 -82.12458 36049 ft 515 kts
2026-05-04 01:00 28.57547 -82.11152 36284 ft 515 kts
2026-05-04 01:00 28.60941 -82.09849 36505 ft 516 kts
2026-05-04 01:01 28.64350 -82.08542 36723 ft 516 kts
2026-05-04 01:01 28.67698 -82.07260 37037 ft 512 kts
2026-05-04 01:01 28.71065 -82.05970 37368 ft 510 kts
2026-05-04 01:01 28.74426 -82.04686 37608 ft 509 kts
2026-05-04 01:02 28.77787 -82.03405 37818 ft 508 kts
2026-05-04 01:02 28.81139 -82.02130 38024 ft 508 kts
2026-05-04 01:02 28.84495 -82.00856 38197 ft 508 kts
2026-05-04 01:02 28.87853 -81.99577 38362 ft 509 kts
2026-05-04 01:03 28.91215 -81.98292 38495 ft 510 kts
2026-05-04 01:03 28.94582 -81.97000 38631 ft 511 kts
2026-05-04 01:03 28.97955 -81.95704 38790 ft 511 kts
2026-05-04 01:03 29.01338 -81.94406 38914 ft 512 kts
2026-05-04 01:04 29.04721 -81.93113 39068 ft 512 kts
2026-05-04 01:04 29.11467 -81.90527 39109 ft 516 kts
2026-05-04 01:05 29.18276 -81.87901 39109 ft 517 kts
2026-05-04 01:05 29.25098 -81.85270 39110 ft 517 kts
2026-05-04 01:06 29.31919 -81.82647 39110 ft 518 kts
2026-05-04 01:06 29.38755 -81.80000 39107 ft 519 kts
2026-05-04 01:07 29.45600 -81.77349 39110 ft 520 kts
2026-05-04 01:07 29.52462 -81.74698 39109 ft 520 kts
2026-05-04 01:08 29.59328 -81.72038 39114 ft 521 kts
2026-05-04 01:08 29.66208 -81.69355 39118 ft 522 kts
2026-05-04 01:09 29.73094 -81.66673 39124 ft 522 kts
2026-05-04 01:09 29.79948 -81.64122 39130 ft 521 kts
2026-05-04 01:10 29.86856 -81.61588 39138 ft 521 kts
2026-05-04 01:10 29.93762 -81.59017 39142 ft 522 kts
2026-05-04 01:11 30.00669 -81.56424 39151 ft 522 kts
2026-05-04 01:11 30.07583 -81.53818 39150 ft 522 kts
2026-05-04 01:12 30.14496 -81.51211 39157 ft 522 kts
2026-05-04 01:12 30.21399 -81.48600 39165 ft 521 kts
2026-05-04 01:13 30.28296 -81.45989 39159 ft 520 kts
2026-05-04 01:13 30.35137 -81.43412 39148 ft 521 kts
2026-05-04 01:14 30.42030 -81.40818 39152 ft 519 kts
2026-05-04 01:14 30.45504 -81.39891 39148 ft 504 kts 355°
2026-05-04 01:14 30.48940 -81.39537 39153 ft 488 kts 346°
2026-05-04 01:15 30.55625 -81.39850 39155 ft 480 kts 343°
2026-05-04 01:15 30.62304 -81.40217 39159 ft 481 kts 343°
2026-05-04 01:16 30.68991 -81.40562 39170 ft 481 kts 343°
2026-05-04 01:16 30.75668 -81.40907 39171 ft 480 kts 343°
2026-05-04 01:17 30.82335 -81.41263 39164 ft 479 kts 343°
2026-05-04 01:17 30.88998 -81.41619 39161 ft 479 kts 343°
2026-05-04 01:18 30.95659 -81.41976 39156 ft 478 kts 343°
2026-05-04 01:18 31.02311 -81.42341 39158 ft 479 kts 343°
2026-05-04 01:19 31.08976 -81.42697 39157 ft 479 kts 343°
2026-05-04 01:19 31.15599 -81.43046 39157 ft 479 kts 344°
2026-05-04 01:20 31.22260 -81.43405 39159 ft 478 kts 343°
2026-05-04 01:20 31.28912 -81.43705 39166 ft 480 kts 345°
2026-05-04 01:21 31.35622 -81.43772 39169 ft 482 kts 347°
2026-05-04 01:21 31.42334 -81.43770 39164 ft 481 kts 347°
2026-05-04 01:22 31.49060 -81.43096 39157 ft 504 kts
2026-05-04 01:22 31.55821 -81.40465 39154 ft 514 kts
2026-05-04 01:23 31.61475 -81.38126 39153 ft 514 kts
2026-05-04 01:23 31.68179 -81.35358 39151 ft 514 kts
2026-05-04 01:24 31.74947 -81.32577 39147 ft 514 kts
2026-05-04 01:24 31.81692 -81.29805 39141 ft 513 kts
2026-05-04 01:25 31.88442 -81.27021 39141 ft 514 kts
2026-05-04 01:25 31.95215 -81.24370 39131 ft 505 kts
2026-05-04 01:25 31.98582 -81.23674 39129 ft 491 kts 353°
2026-05-04 01:26 32.01956 -81.23451 39125 ft 483 kts 349°
2026-05-04 01:26 32.08680 -81.23133 39140 ft 483 kts 350°
2026-05-04 01:27 32.15386 -81.22808 39152 ft 482 kts 350°
2026-05-04 01:27 32.22088 -81.22472 39161 ft 482 kts 350°
2026-05-04 01:28 32.28791 -81.22130 39164 ft 482 kts 350°
2026-05-04 01:28 32.35483 -81.21795 39164 ft 481 kts 350°
2026-05-04 01:29 32.42167 -81.21463 39161 ft 480 kts 350°
2026-05-04 01:29 32.48854 -81.21015 39156 ft 489 kts 357°
2026-05-04 01:30 32.55611 -81.19512 39155 ft 494 kts
2026-05-04 01:30 32.62354 -81.17947 39152 ft 494 kts
2026-05-04 01:31 32.69098 -81.16392 39155 ft 494 kts
2026-05-04 01:31 32.75841 -81.14837 39156 ft 494 kts
2026-05-04 01:32 32.82532 -81.13290 39154 ft 493 kts
2026-05-04 01:32 32.89268 -81.11732 39152 ft 493 kts
2026-05-04 01:33 32.95996 -81.10173 39147 ft 492 kts
2026-05-04 01:33 33.02709 -81.08608 39146 ft 491 kts
2026-05-04 01:34 33.09421 -81.07044 39148 ft 491 kts
2026-05-04 01:34 33.16127 -81.05487 39152 ft 491 kts
2026-05-04 01:35 33.22820 -81.03938 39152 ft 490 kts
2026-05-04 01:35 33.29509 -81.02373 39150 ft 489 kts
2026-05-04 01:36 33.36199 -81.00801 39149 ft 489 kts
2026-05-04 01:36 33.42871 -80.99243 39146 ft 488 kts
2026-05-04 01:37 33.49539 -80.97688 39142 ft 488 kts
2026-05-04 01:37 33.56151 -80.96123 39140 ft 487 kts
2026-05-04 01:38 33.62796 -80.94556 39138 ft 486 kts
2026-05-04 01:38 33.69434 -80.92991 39132 ft 486 kts
2026-05-04 01:39 33.76066 -80.91417 39127 ft 486 kts
2026-05-04 01:39 33.82688 -80.89848 39126 ft 485 kts
2026-05-04 01:40 33.89303 -80.88386 39123 ft 481 kts 358°
2026-05-04 01:40 33.95907 -80.87224 39120 ft 478 kts 356°
2026-05-04 01:41 34.02457 -80.86143 39122 ft 478 kts 357°
2026-05-04 01:41 34.09034 -80.85000 39129 ft 477 kts 358°
2026-05-04 01:42 34.15603 -80.83797 39132 ft 476 kts 358°
2026-05-04 01:42 34.22137 -80.82596 39132 ft 474 kts 358°
2026-05-04 01:43 34.28659 -80.81414 39132 ft 473 kts 358°
2026-05-04 01:43 34.35130 -80.80240 39129 ft 472 kts 358°
2026-05-04 01:44 34.41631 -80.79066 39125 ft 472 kts 358°
2026-05-04 01:44 34.48132 -80.77890 39126 ft 472 kts 358°
2026-05-04 01:45 34.54630 -80.76710 39127 ft 472 kts 358°
2026-05-04 01:45 34.64371 -80.74925 39128 ft 472 kts 358°
2026-05-04 01:46 34.70869 -80.73731 39129 ft 472 kts 358°
2026-05-04 01:46 34.77314 -80.72555 39131 ft 471 kts 358°
2026-05-04 01:47 34.83803 -80.71370 39130 ft 471 kts 358°
2026-05-04 01:47 34.90279 -80.70170 39125 ft 470 kts 358°
2026-05-04 01:48 34.96758 -80.68975 39120 ft 470 kts 358°
2026-05-04 01:48 35.03181 -80.67794 39116 ft 470 kts 358°
2026-05-04 01:49 35.09640 -80.66605 39115 ft 469 kts 358°
2026-05-04 01:49 35.16097 -80.65411 39116 ft 469 kts 358°
2026-05-04 01:50 35.22547 -80.64217 39117 ft 468 kts 358°
2026-05-04 01:50 35.28992 -80.63022 39118 ft 468 kts 358°
2026-05-04 01:51 35.35438 -80.61826 39115 ft 467 kts 358°
2026-05-04 01:51 35.41872 -80.60622 39124 ft 467 kts 358°
2026-05-04 01:52 35.48294 -80.59417 39124 ft 467 kts 358°
2026-05-04 01:52 35.54675 -80.58226 39130 ft 466 kts 358°
2026-05-04 01:53 35.61097 -80.57034 39123 ft 466 kts 358°
2026-05-04 01:53 35.67518 -80.55829 39117 ft 466 kts 358°
2026-05-04 01:54 35.73929 -80.54625 39116 ft 466 kts 358°
2026-05-04 01:54 35.80342 -80.53422 39119 ft 466 kts 358°
2026-05-04 01:55 35.86751 -80.52212 39119 ft 466 kts 358°
2026-05-04 01:55 35.93154 -80.51000 39117 ft 465 kts 358°
2026-05-04 01:56 35.99549 -80.49792 39118 ft 465 kts 358°
2026-05-04 01:56 36.05905 -80.48595 39118 ft 465 kts 358°
2026-05-04 01:57 36.12292 -80.47383 39120 ft 464 kts 358°
2026-05-04 01:57 36.18704 -80.46164 39080 ft 467 kts 358°
2026-05-04 01:58 36.25159 -80.44939 39077 ft 471 kts 358°
2026-05-04 01:58 36.31653 -80.43703 39081 ft 473 kts 359°
2026-05-04 01:59 36.38167 -80.42458 39086 ft 475 kts 359°
2026-05-04 01:59 36.44696 -80.41195 39095 ft 476 kts 359°
2026-05-04 02:00 36.51244 -80.39864 39105 ft 476 kts 359°
2026-05-04 02:00 36.57793 -80.38512 39109 ft 477 kts 360°
2026-05-04 02:01 36.64347 -80.37163 39115 ft 477 kts 359°
2026-05-04 02:01 36.70856 -80.35836 39122 ft 477 kts 360°
2026-05-04 02:02 36.77410 -80.34575 39130 ft 475 kts 358°
2026-05-04 02:02 36.83952 -80.33651 39129 ft 471 kts 356°
2026-05-04 02:03 36.90482 -80.32847 39135 ft 471 kts 356°
2026-05-04 02:03 36.97009 -80.31972 39136 ft 472 kts 356°
2026-05-04 02:04 37.03540 -80.31022 39134 ft 472 kts 357°
2026-05-04 02:04 37.10030 -80.30070 39134 ft 472 kts 357°
2026-05-04 02:05 37.16557 -80.29128 39140 ft 472 kts 357°
2026-05-04 02:05 37.23086 -80.28202 39143 ft 472 kts 356°
2026-05-04 02:06 37.29610 -80.27273 39140 ft 472 kts 357°
2026-05-04 02:06 37.36143 -80.26335 39137 ft 472 kts 357°
2026-05-04 02:07 37.42664 -80.25392 39128 ft 471 kts 357°
2026-05-04 02:07 37.49177 -80.24455 39126 ft 471 kts 357°
2026-05-04 02:08 37.55694 -80.23523 39121 ft 472 kts 357°
2026-05-04 02:08 37.62218 -80.22578 39117 ft 472 kts 357°
2026-05-04 02:09 37.68697 -80.21619 39116 ft 472 kts 357°
2026-05-04 02:09 37.75224 -80.20638 39108 ft 472 kts 357°
2026-05-04 02:10 37.81759 -80.19660 39107 ft 472 kts 357°
2026-05-04 02:10 37.88289 -80.18687 39103 ft 472 kts 357°
2026-05-04 02:11 37.94825 -80.17703 39098 ft 472 kts 357°
2026-05-04 02:11 38.01306 -80.16727 39101 ft 473 kts 357°
2026-05-04 02:12 38.07843 -80.15745 39102 ft 473 kts 357°
2026-05-04 02:12 38.14379 -80.14765 39100 ft 472 kts 357°
2026-05-04 02:13 38.20909 -80.13781 39100 ft 472 kts 357°
2026-05-04 02:13 38.27439 -80.12791 39100 ft 472 kts 357°
2026-05-04 02:14 38.32863 -80.11972 39101 ft 472 kts 357°
2026-05-04 02:14 38.40434 -80.11020 39103 ft 468 kts 354°
2026-05-04 02:15 38.45863 -80.10740 39103 ft 465 kts 352°
2026-05-04 02:15 38.52325 -80.10544 39104 ft 464 kts 352°
2026-05-04 02:16 38.58780 -80.10264 39104 ft 465 kts 353°
2026-05-04 02:16 38.65240 -80.09898 39106 ft 465 kts 353°
2026-05-04 02:17 38.71696 -80.09515 39106 ft 464 kts 353°
2026-05-04 02:17 38.78139 -80.09151 39106 ft 463 kts 353°
2026-05-04 02:18 38.84575 -80.08799 39105 ft 463 kts 353°
2026-05-04 02:18 38.91008 -80.08443 39104 ft 463 kts 354°
2026-05-04 02:19 38.97464 -80.07217 39089 ft 470 kts
2026-05-04 02:19 39.03911 -80.05821 39093 ft 469 kts
2026-05-04 02:20 39.10347 -80.04446 39098 ft 469 kts
2026-05-04 02:20 39.16780 -80.03067 39095 ft 468 kts
2026-05-04 02:21 39.23200 -80.01683 39091 ft 468 kts
2026-05-04 02:21 39.29618 -80.00289 39089 ft 467 kts
2026-05-04 02:22 39.35988 -79.98914 39080 ft 466 kts
2026-05-04 02:22 39.42390 -79.97524 39081 ft 466 kts
2026-05-04 02:23 39.48788 -79.96127 39087 ft 466 kts
2026-05-04 02:23 39.55184 -79.94721 39087 ft 466 kts
2026-05-04 02:24 39.61532 -79.93330 39086 ft 465 kts
2026-05-04 02:24 39.67916 -79.91936 39088 ft 465 kts
2026-05-04 02:25 39.74296 -79.90538 39086 ft 464 kts
2026-05-04 02:25 39.80672 -79.89132 39084 ft 464 kts
2026-05-04 02:26 39.86998 -79.87742 39083 ft 464 kts
2026-05-04 02:26 39.93361 -79.86330 39081 ft 463 kts
2026-05-04 02:27 39.99716 -79.84924 39082 ft 463 kts
2026-05-04 02:27 40.06075 -79.83524 39074 ft 463 kts
2026-05-04 02:28 40.12384 -79.82127 39065 ft 463 kts
2026-05-04 02:28 40.18731 -79.80711 39062 ft 463 kts
2026-05-04 02:29 40.25084 -79.79299 39057 ft 463 kts
2026-05-04 02:29 40.31433 -79.77880 39052 ft 463 kts
2026-05-04 02:30 40.37780 -79.76465 39045 ft 463 kts
2026-05-04 02:30 40.44119 -79.75036 39041 ft 463 kts
2026-05-04 02:31 40.50439 -79.73619 39046 ft 463 kts
2026-05-04 02:31 40.56803 -79.72189 39047 ft 463 kts
2026-05-04 02:32 40.63156 -79.70753 39044 ft 463 kts
2026-05-04 02:32 40.69512 -79.69315 39041 ft 463 kts
2026-05-04 02:33 40.75870 -79.67881 39043 ft 464 kts
2026-05-04 02:33 40.82242 -79.66447 39044 ft 464 kts
2026-05-04 02:34 40.88612 -79.65009 39038 ft 464 kts
2026-05-04 02:34 40.94976 -79.63548 39038 ft 465 kts
2026-05-04 02:35 41.01340 -79.62086 39037 ft 464 kts
2026-05-04 02:35 41.07717 -79.60640 39038 ft 465 kts
2026-05-04 02:36 41.14053 -79.59198 39032 ft 464 kts
2026-05-04 02:36 41.20429 -79.57731 39031 ft 464 kts
2026-05-04 02:37 41.26796 -79.56255 39015 ft 464 kts
2026-05-04 02:37 41.33154 -79.54785 39025 ft 463 kts
2026-05-04 02:38 41.39507 -79.53328 39023 ft 463 kts
2026-05-04 02:38 41.45819 -79.51871 39008 ft 463 kts
2026-05-04 02:39 41.52175 -79.50399 39012 ft 463 kts
2026-05-04 02:39 41.58529 -79.48927 39007 ft 463 kts
2026-05-04 02:40 41.64879 -79.47439 39002 ft 463 kts
2026-05-04 02:40 41.71238 -79.45953 39002 ft 463 kts
2026-05-04 02:41 41.77588 -79.44469 38998 ft 463 kts
2026-05-04 02:41 41.83945 -79.42974 38993 ft 463 kts
2026-05-04 02:42 41.90312 -79.41482 38449 ft 465 kts
2026-05-04 02:42 41.93444 -79.40749 37964 ft 461 kts
2026-05-04 02:42 41.96598 -79.40008 37415 ft 458 kts
2026-05-04 02:43 41.99749 -79.39267 36574 ft 462 kts
2026-05-04 02:43 42.02913 -79.38524 35979 ft 459 kts
2026-05-04 02:43 42.06050 -79.37782 35313 ft 457 kts
2026-05-04 02:43 42.09170 -79.37042 34784 ft 452 kts
2026-05-04 02:44 42.12259 -79.36492 34241 ft 443 kts 358°
2026-05-04 02:44 42.15320 -79.36255 33711 ft 438 kts 358°
2026-05-04 02:44 42.18347 -79.36015 33217 ft 432 kts 358°
2026-05-04 02:44 42.21337 -79.35776 32715 ft 427 kts 358°
2026-05-04 02:45 42.24294 -79.35536 32175 ft 423 kts 358°
2026-05-04 02:45 42.27186 -79.35298 31648 ft 418 kts 358°
2026-05-04 02:45 42.30074 -79.35061 31179 ft 413 kts 358°
2026-05-04 02:45 42.32921 -79.34829 30678 ft 408 kts 358°
2026-05-04 02:46 42.35741 -79.34601 30202 ft 403 kts 358°
2026-05-04 02:46 42.38484 -79.34383 29754 ft 398 kts 357°
2026-05-04 02:46 42.41235 -79.34167 29294 ft 393 kts 358°
2026-05-04 02:46 42.43949 -79.33947 28854 ft 388 kts 358°
2026-05-04 02:47 42.46627 -79.33731 28431 ft 383 kts 358°
2026-05-04 02:47 42.49269 -79.33519 28011 ft 378 kts 357°
2026-05-04 02:47 42.51884 -79.33306 27584 ft 375 kts 357°
2026-05-04 02:47 42.54472 -79.33092 27164 ft 371 kts 357°
2026-05-04 02:48 42.57039 -79.32884 26726 ft 368 kts 357°
2026-05-04 02:48 42.59586 -79.32683 26296 ft 365 kts 357°
2026-05-04 02:48 42.62115 -79.32482 25858 ft 363 kts 357°
2026-05-04 02:48 42.64635 -79.32277 25395 ft 361 kts 357°
2026-05-04 02:49 42.67140 -79.32073 24936 ft 359 kts 357°
2026-05-04 02:49 42.69627 -79.31873 24461 ft 357 kts 357°
2026-05-04 02:49 42.72099 -79.31675 23996 ft 355 kts 357°
2026-05-04 02:49 42.74562 -79.31476 23512 ft 353 kts 357°
2026-05-04 02:50 42.77009 -79.31276 23050 ft 351 kts 357°
2026-05-04 02:50 42.79410 -79.31077 22591 ft 349 kts 358°
2026-05-04 02:50 42.81826 -79.30875 22131 ft 347 kts 358°
2026-05-04 02:50 42.84214 -79.30847 21678 ft 340 kts 350°
2026-05-04 02:51 42.86561 -79.31087 21234 ft 337 kts 350°
2026-05-04 02:51 42.88893 -79.31321 20792 ft 335 kts 350°
2026-05-04 02:51 42.91209 -79.31551 20362 ft 333 kts 350°
2026-05-04 02:51 42.93510 -79.31783 19926 ft 331 kts 350°
2026-05-04 02:52 42.95800 -79.32011 19502 ft 328 kts 350°
2026-05-04 02:52 42.98070 -79.32236 19066 ft 326 kts 350°
2026-05-04 02:52 43.00328 -79.32461 18653 ft 324 kts 350°
2026-05-04 02:52 43.02573 -79.32687 18228 ft 323 kts 350°
2026-05-04 02:53 43.04806 -79.32914 17816 ft 320 kts 350°
2026-05-04 02:53 43.07022 -79.33142 17418 ft 318 kts 350°
2026-05-04 02:53 43.09223 -79.33368 17007 ft 316 kts 350°
2026-05-04 02:53 43.11415 -79.33590 16615 ft 314 kts 350°
2026-05-04 02:54 43.13589 -79.33805 16217 ft 312 kts 350°
2026-05-04 02:54 43.15750 -79.34020 15836 ft 310 kts 350°
2026-05-04 02:54 43.17893 -79.34233 15457 ft 308 kts 350°
2026-05-04 02:54 43.20026 -79.34446 15084 ft 306 kts 350°
2026-05-04 02:55 43.24251 -79.34874 14342 ft 303 kts 350°
2026-05-04 02:55 43.26344 -79.35085 13981 ft 300 kts 350°
2026-05-04 02:55 43.28400 -79.35293 13615 ft 300 kts 350°
2026-05-04 02:56 43.30437 -79.35736 13247 ft 292 kts 339°
2026-05-04 02:56 43.32298 -79.36778 12885 ft 287 kts 330°
2026-05-04 02:56 43.34100 -79.37950 12500 ft 285 kts 330°
2026-05-04 02:56 43.35882 -79.39094 12222 ft 279 kts 330°
2026-05-04 02:57 43.37649 -79.40221 11774 ft 281 kts 330°
2026-05-04 02:57 43.39420 -79.41354 11376 ft 280 kts 330°
2026-05-04 02:57 43.41185 -79.42483 10998 ft 279 kts 330°
2026-05-04 02:57 43.42943 -79.43608 10613 ft 278 kts 329°
2026-05-04 02:58 43.44690 -79.44731 10232 ft 277 kts 328°
2026-05-04 02:58 43.46406 -79.45839 9851 ft 275 kts 328°
2026-05-04 02:58 43.48133 -79.46950 9456 ft 273 kts 328°
2026-05-04 02:58 43.49847 -79.48052 9072 ft 271 kts 327°
2026-05-04 02:59 43.51542 -79.49143 8772 ft 267 kts 327°
2026-05-04 02:59 43.53207 -79.50217 8434 ft 263 kts 327°
2026-05-04 02:59 43.54855 -79.51288 8053 ft 261 kts 327°
2026-05-04 02:59 43.56494 -79.52349 7667 ft 260 kts 327°
2026-05-04 03:00 43.58157 -79.53322 7276 ft 264 kts 337°
2026-05-04 03:00 43.60038 -79.53221 6914 ft 285 kts 12°
2026-05-04 03:00 43.61739 -79.51725 6525 ft 296 kts 35°
2026-05-04 03:00 43.63227 -79.49754 6094 ft 297 kts 41°
2026-05-04 03:01 43.64624 -79.47634 5623 ft 300 kts 44°
2026-05-04 03:01 43.66004 -79.45457 5190 ft 300 kts 45°
2026-05-04 03:01 43.67374 -79.43307 4808 ft 297 kts 45°
2026-05-04 03:01 43.68735 -79.41226 4446 ft 293 kts 44°
2026-05-04 03:02 43.70109 -79.39171 4087 ft 289 kts 44°
2026-05-04 03:02 43.71479 -79.37151 3688 ft 286 kts 44°
2026-05-04 03:02 43.72836 -79.35164 3404 ft 279 kts 44°
2026-05-04 03:02 43.74310 -79.33588 3271 ft 260 kts 19°
2026-05-04 03:03 43.76001 -79.33202 3150 ft 236 kts 347°
2026-05-04 03:03 43.77446 -79.33976 3049 ft 216 kts 323°
2026-05-04 03:03 43.78631 -79.35165 2998 ft 206 kts 313°
2026-05-04 03:03 43.79625 -79.36487 3017 ft 190 kts 309°
2026-05-04 03:04 43.80317 -79.37932 3008 ft 172 kts 286°
2026-05-04 03:04 43.80481 -79.38963 3000 ft 161 kts 271°
2026-05-04 03:04 43.80354 -79.40445 3003 ft 153 kts 251°
2026-05-04 03:04 43.79847 -79.41730 3005 ft 153 kts 232°
2026-05-04 03:05 43.79123 -79.42801 3008 ft 148 kts 228°
2026-05-04 03:05 43.78411 -79.43843 3006 ft 150 kts 229°
2026-05-04 03:05 43.77689 -79.44898 3007 ft 151 kts 229°
2026-05-04 03:05 43.76966 -79.45957 3007 ft 151 kts 228°
2026-05-04 03:06 43.76242 -79.47013 2941 ft 151 kts 228°
2026-05-04 03:06 43.75514 -79.48065 2816 ft 152 kts 228°
2026-05-04 03:06 43.74794 -79.49110 2640 ft 152 kts 227°
2026-05-04 03:06 43.74065 -79.50175 2413 ft 152 kts 227°
2026-05-04 03:07 43.73347 -79.51238 2206 ft 145 kts 227°
2026-05-04 03:07 43.72689 -79.52215 2026 ft 135 kts 227°
2026-05-04 03:07 43.72050 -79.53133 1821 ft 131 kts 226°
2026-05-04 03:07 43.71424 -79.54046 1659 ft 131 kts 226°
2026-05-04 03:08 43.70802 -79.54958 1467 ft 130 kts 226°
2026-05-04 03:08 43.70178 -79.55865 1319 ft 130 kts 226°
2026-05-04 03:08 43.69552 -79.56770 1168 ft 130 kts 225°
2026-05-04 03:08 43.68928 -79.57679 993 ft 130 kts 226°
2026-05-04 03:09 43.68304 -79.58587 836 ft 131 kts 226°
2026-05-04 03:09 43.67681 -79.59500 634 ft 134 kts 226°
2026-05-04 03:09 43.67071 -79.60384 558 ft 112 kts 226°
2026-05-04 03:09 43.66652 -79.60994 566 ft 63 kts 226°
2026-05-04 03:10 43.66473 -79.61268 562 ft 26 kts 237°
2026-05-04 03:10 43.66399 -79.61498 559 ft 26 kts 250°
2026-05-04 03:10 43.66385 -79.61718 563 ft 22 kts 314°
2026-05-04 03:10 43.66491 -79.61857 560 ft 21 kts 317°
2026-05-04 03:11 43.66626 -79.61916 561 ft 22 kts 34°
2026-05-04 03:11 43.66735 -79.61757 562 ft 23 kts 47°
2026-05-04 03:11 43.66844 -79.61598 560 ft 23 kts 46°
2026-05-04 03:11 43.66950 -79.61444 568 ft 21 kts 46°
2026-05-04 03:12 43.67050 -79.61298 567 ft 22 kts 46°
2026-05-04 03:12 43.67170 -79.61163 563 ft 24 kts
2026-05-04 03:12 43.67300 -79.61285 565 ft 23 kts 314°
2026-05-04 03:12 43.67419 -79.61436 567 ft 23 kts 311°
2026-05-04 03:13 43.67526 -79.61589 565 ft 20 kts 316°
2026-05-04 03:13 43.67644 -79.61655 562 ft 21 kts 30°
2026-05-04 03:13 43.67746 -79.61515 565 ft 19 kts 47°
2026-05-04 03:13 43.67817 -79.61412 566 ft 12 kts 46°
2026-05-04 03:14 43.67849 -79.61326 566 ft 10 kts 89°
2026-05-04 03:14 43.67848 -79.61246 562 ft 4 kts 91°
2026-05-04 03:14 43.67847 -79.61242 562 ft 0 kts 91°